Location: ???????
(54.6339°N, 39.4245°E)
Time: 13:53:08
(UTC+00:00)

Cosmos 2112 Rocket - Pass Details

Date: 19 May 2025
Orbit: 753 x 782 km, 74.0° (Epoch: 19 June)

Event Time Altitude Azimuth Distance (km) Brightness Sun altitude
Exits shadow 22:01:01 23° 195° (SSW) 1,586 5.0 -14.8°
Maximum altitude 22:04:18 75° 114° (ESE) 797 4.0 -14.8°
Drops below altitude 10° 22:09:32 10° 30° (NNE) 2,306 7.7 -14.6°
Sets 22:11:54 0° 28° (NNE) 3,232 8.8 -14.5°
